Time,TemperatureF,DewpointF,PressureIn,WindDirection,WindDirectionDegrees,WindSpeedMPH,WindSpeedGustMPH,Humidity,HourlyPrecipIn,Conditions,Clouds,dailyrainin,SoftwareType,DateUTC
2013-04-28 00:03:00,56.0,41.0,26.86,SSW,192,9.0,11.0,56,0.00,,,-99.99,,2013-04-28 05:03:00,
2013-04-28 00:08:00,55.0,41.0,26.86,SSW,199,9.0,11.0,61,0.00,,,-99.99,,2013-04-28 05:08:00,
2013-04-28 00:13:00,55.0,41.0,26.86,SSW,199,10.0,12.0,60,0.00,,,-99.99,,2013-04-28 05:13:00,
2013-04-28 00:23:00,54.0,43.0,26.85,SSW,192,9.0,11.0,64,0.00,,,-99.99,,2013-04-28 05:23:00,
2013-04-28 00:28:00,54.0,41.0,26.85,South,190,9.0,11.0,63,0.00,,,-99.99,,2013-04-28 05:28:00,
2013-04-28 00:38:00,53.0,41.0,26.85,SSW,196,9.0,11.0,65,0.00,,,-99.99,,2013-04-28 05:38:00,
2013-04-28 00:43:00,53.0,41.0,26.85,SSW,197,8.0,10.0,64,0.00,,,-99.99,,2013-04-28 05:43:00,
2013-04-28 00:58:00,52.0,43.0,26.85,SW,214,7.0,8.0,70,0.00,,,-99.99,,2013-04-28 05:58:00,
2013-04-28 01:03:00,52.0,43.0,26.85,SSW,212,8.0,10.0,71,0.00,,,-99.99,,2013-04-28 06:03:00,
2013-04-28 01:13:00,51.0,43.0,26.85,SW,220,8.0,9.0,73,0.00,,,-99.99,,2013-04-28 06:13:00,
2013-04-28 01:18:00,51.0,43.0,26.84,SW,221,9.0,11.0,74,0.00,,,-99.99,,2013-04-28 06:18:00,
2013-04-28 01:23:00,51.0,43.0,26.84,SW,227,9.0,10.0,74,0.00,,,-99.99,,2013-04-28 06:23:00,
2013-04-28 01:28:00,51.0,43.0,26.84,SW,226,9.0,9.0,74,0.00,,,-99.99,,2013-04-28 06:28:00,
2013-04-28 01:38:00,50.0,43.0,26.84,SW,234,9.0,10.0,76,0.00,,,-99.99,,2013-04-28 06:38:00,
2013-04-28 01:43:00,51.0,43.0,26.84,SW,221,10.0,11.0,75,0.00,,,-99.99,,2013-04-28 06:43:00,
2013-04-28 01:48:00,51.0,43.0,26.84,SW,214,10.0,11.0,75,0.00,,,-99.99,,2013-04-28 06:48:00,
2013-04-28 01:53:00,51.0,43.0,26.84,SW,221,9.0,9.0,75,0.00,,,-99.99,,2013-04-28 06:53:00,
2013-04-28 02:03:00,50.0,43.0,26.84,SW,226,9.0,9.0,76,0.00,,,-99.99,,2013-04-28 07:03:00,
2013-04-28 02:08:00,49.0,41.0,26.84,SW,235,8.0,9.0,76,0.00,,,-99.99,,2013-04-28 07:08:00,
2013-04-28 02:18:00,49.0,43.0,26.84,SW,230,10.0,12.0,78,0.00,,,-99.99,,2013-04-28 07:18:00,
2013-04-28 02:23:00,50.0,43.0,26.84,SW,228,10.0,13.0,78,0.00,,,-99.99,,2013-04-28 07:23:00,
2013-04-28 02:28:00,50.0,43.0,26.84,WSW,240,12.0,16.0,77,0.00,,,-99.99,,2013-04-28 07:28:00,
2013-04-28 02:38:00,51.0,43.0,26.83,WSW,244,11.0,14.0,75,0.00,,,-99.99,,2013-04-28 07:38:00,
2013-04-28 02:43:00,51.0,43.0,26.83,SW,235,10.0,13.0,74,0.00,,,-99.99,,2013-04-28 07:43:00,
2013-04-28 02:48:00,51.0,43.0,26.83,SW,221,10.0,12.0,72,0.00,,,-99.99,,2013-04-28 07:48:00,
2013-04-28 02:58:00,50.0,41.0,26.83,WSW,243,9.0,10.0,72,0.00,,,-99.99,,2013-04-28 07:58:00,
2013-04-28 03:03:00,50.0,41.0,26.82,WSW,245,9.0,12.0,72,0.00,,,-99.99,,2013-04-28 08:03:00,
2013-04-28 03:08:00,50.0,41.0,26.82,WSW,250,10.0,13.0,71,0.00,,,-99.99,,2013-04-28 08:08:00,
2013-04-28 03:13:00,50.0,41.0,26.82,WSW,250,9.0,11.0,70,0.00,,,-99.99,,2013-04-28 08:13:00,
2013-04-28 03:18:00,50.0,41.0,26.82,WSW,248,8.0,11.0,70,0.00,,,-99.99,,2013-04-28 08:18:00,
2013-04-28 03:23:00,50.0,41.0,26.82,WSW,248,9.0,11.0,69,0.00,,,-99.99,,2013-04-28 08:23:00,
2013-04-28 03:28:00,50.0,41.0,26.82,WSW,248,9.0,11.0,70,0.00,,,-99.99,,2013-04-28 08:28:00,
2013-04-28 03:33:00,50.0,39.0,26.82,WSW,244,9.0,11.0,68,0.00,,,-99.99,,2013-04-28 08:33:00,
2013-04-28 03:38:00,50.0,39.0,26.82,WSW,248,10.0,12.0,66,0.00,,,-99.99,,2013-04-28 08:38:00,
2013-04-28 03:53:00,50.0,37.0,26.82,WSW,248,7.0,9.0,62,0.00,,,-99.99,,2013-04-28 08:53:00,
2013-04-28 03:58:00,50.0,37.0,26.81,WSW,238,6.0,8.0,60,0.00,,,-99.99,,2013-04-28 08:58:00,
2013-04-28 04:03:00,49.0,36.0,26.81,WSW,247,6.0,7.0,60,0.00,,,-99.99,,2013-04-28 09:03:00,
2013-04-28 04:08:00,49.0,36.0,26.81,West,262,6.0,8.0,60,0.00,,,-99.99,,2013-04-28 09:08:00,
2013-04-28 04:13:00,49.0,36.0,26.81,WSW,257,6.0,8.0,60,0.00,,,-99.99,,2013-04-28 09:13:00,
2013-04-28 04:18:00,49.0,36.0,26.81,West,265,6.0,8.0,61,0.00,,,-99.99,,2013-04-28 09:18:00,
2013-04-28 04:23:00,48.0,36.0,26.81,WSW,254,6.0,7.0,61,0.00,,,-99.99,,2013-04-28 09:23:00,
2013-04-28 04:28:00,48.0,36.0,26.81,WSW,258,6.0,7.0,61,0.00,,,-99.99,,2013-04-28 09:28:00,
2013-04-28 04:33:00,48.0,36.0,26.81,WSW,258,5.0,7.0,61,0.00,,,-99.99,,2013-04-28 09:33:00,
2013-04-28 04:43:00,48.0,36.0,26.81,West,266,6.0,6.0,60,0.00,,,-99.99,,2013-04-28 09:43:00,
2013-04-28 04:48:00,47.0,34.0,26.81,WSW,258,6.0,7.0,62,0.00,,,-99.99,,2013-04-28 09:48:00,
2013-04-28 04:53:00,47.0,36.0,26.81,West,278,6.0,8.0,63,0.00,,,-99.99,,2013-04-28 09:53:00,
2013-04-28 05:08:00,47.0,36.0,26.81,West,259,7.0,8.0,63,0.00,,,-99.99,,2013-04-28 10:08:00,
2013-04-28 05:23:00,46.0,34.0,26.81,West,259,7.0,9.0,61,0.00,,,-99.99,,2013-04-28 10:23:00,
2013-04-28 05:28:00,46.0,34.0,26.81,WSW,250,8.0,10.0,61,0.00,,,-99.99,,2013-04-28 10:28:00,
2013-04-28 05:33:00,47.0,32.0,26.81,WSW,240,8.0,10.0,57,0.00,,,-99.99,,2013-04-28 10:33:00,
2013-04-28 05:43:00,48.0,28.0,26.81,WSW,255,11.0,13.0,47,0.00,,,-99.99,,2013-04-28 10:43:00,
2013-04-28 05:48:00,48.0,32.0,26.80,WSW,255,10.0,11.0,52,0.00,,,-99.99,,2013-04-28 10:48:00,
2013-04-28 05:58:00,47.0,32.0,26.80,WSW,254,9.0,10.0,56,0.00,,,-99.99,,2013-04-28 10:58:00,
2013-04-28 06:03:00,47.0,32.0,26.80,WSW,251,10.0,11.0,54,0.00,,,-99.99,,2013-04-28 11:03:00,
2013-04-28 06:08:00,47.0,34.0,26.80,WSW,252,9.0,10.0,58,0.00,,,-99.99,,2013-04-28 11:08:00,
2013-04-28 06:18:00,47.0,32.0,26.80,WSW,248,10.0,11.0,55,0.00,,,-99.99,,2013-04-28 11:18:00,
2013-04-28 06:23:00,47.0,32.0,26.80,WSW,257,11.0,12.0,54,0.00,,,-99.99,,2013-04-28 11:23:00,
2013-04-28 06:28:00,47.0,30.0,26.80,West,266,10.0,12.0,52,0.00,,,-99.99,,2013-04-28 11:28:00,
2013-04-28 06:38:00,47.0,30.0,26.80,WSW,258,10.0,11.0,53,0.00,,,-99.99,,2013-04-28 11:38:00,
2013-04-28 06:43:00,47.0,30.0,26.80,WSW,258,10.0,12.0,53,0.00,,,-99.99,,2013-04-28 11:43:00,
2013-04-28 06:58:00,47.0,32.0,26.79,WSW,251,10.0,12.0,55,0.00,,,-99.99,,2013-04-28 11:58:00,
2013-04-28 07:03:00,47.0,32.0,26.79,WSW,252,9.0,11.0,55,0.00,,,-99.99,,2013-04-28 12:03:00,
2013-04-28 07:13:00,47.0,32.0,26.79,WSW,257,11.0,13.0,54,0.00,,,-99.99,,2013-04-28 12:13:00,
2013-04-28 07:18:00,47.0,32.0,26.79,WSW,243,12.0,13.0,57,0.00,,,-99.99,,2013-04-28 12:18:00,
2013-04-28 07:23:00,47.0,34.0,26.79,WSW,248,11.0,13.0,58,0.00,,,-99.99,,2013-04-28 12:23:00,
2013-04-28 07:33:00,47.0,34.0,26.79,SW,235,11.0,14.0,58,0.00,,,-99.99,,2013-04-28 12:33:00,
2013-04-28 07:38:00,47.0,32.0,26.80,WSW,257,11.0,13.0,57,0.00,,,-99.99,,2013-04-28 12:38:00,
2013-04-28 07:53:00,48.0,34.0,26.80,WSW,250,10.0,12.0,56,0.00,,,-99.99,,2013-04-28 12:53:00,
2013-04-28 07:58:00,48.0,36.0,26.80,WSW,251,8.0,11.0,60,0.00,,,-99.99,,2013-04-28 12:58:00,
2013-04-28 08:08:00,49.0,36.0,26.80,WSW,250,9.0,11.0,59,0.00,,,-99.99,,2013-04-28 13:08:00,
2013-04-28 08:13:00,49.0,36.0,26.80,WSW,245,9.0,12.0,59,0.00,,,-99.99,,2013-04-28 13:13:00,
2013-04-28 08:18:00,50.0,32.0,26.79,WSW,252,11.0,14.0,50,0.00,,,-99.99,,2013-04-28 13:18:00,
2013-04-28 08:23:00,50.0,34.0,26.79,WSW,252,12.0,13.0,55,0.00,,,-99.99,,2013-04-28 13:23:00,
2013-04-28 08:28:00,51.0,36.0,26.80,WSW,257,11.0,14.0,54,0.00,,,-99.99,,2013-04-28 13:28:00,
2013-04-28 08:33:00,51.0,32.0,26.79,West,269,11.0,14.0,49,0.00,,,-99.99,,2013-04-28 13:33:00,
2013-04-28 08:43:00,53.0,41.0,26.79,West,275,12.0,16.0,62,0.00,,,-99.99,,2013-04-28 13:43:00,
2013-04-28 08:48:00,55.0,41.0,26.79,West,271,10.0,13.0,61,0.00,,,-99.99,,2013-04-28 13:48:00,
2013-04-28 08:58:00,57.0,43.0,26.79,West,281,8.0,13.0,59,0.00,,,-99.99,,2013-04-28 13:58:00,
2013-04-28 09:03:00,58.0,43.0,26.79,WNW,289,11.0,15.0,57,0.00,,,-99.99,,2013-04-28 14:03:00,
2013-04-28 09:13:00,60.0,43.0,26.79,West,265,11.0,14.0,54,0.00,,,-99.99,,2013-04-28 14:13:00,
2013-04-28 09:23:00,62.0,43.0,26.79,West,271,10.0,13.0,51,0.00,,,-99.99,,2013-04-28 14:23:00,
2013-04-28 09:28:00,64.0,43.0,26.79,WNW,303,10.0,12.0,46,0.00,,,-99.99,,2013-04-28 14:28:00,
2013-04-28 09:33:00,65.0,43.0,26.79,WNW,302,13.0,17.0,45,0.00,,,-99.99,,2013-04-28 14:33:00,
2013-04-28 09:38:00,67.0,43.0,26.79,WNW,292,14.0,17.0,42,0.00,,,-99.99,,2013-04-28 14:38:00,
2013-04-28 09:43:00,68.0,43.0,26.79,WNW,299,13.0,16.0,41,0.00,,,-99.99,,2013-04-28 14:43:00,
2013-04-28 09:53:00,68.0,43.0,26.78,WNW,298,13.0,17.0,39,0.00,,,-99.99,,2013-04-28 14:53:00,
2013-04-28 10:03:00,68.0,43.0,26.78,WNW,293,12.0,17.0,39,0.00,,,-99.99,,2013-04-28 15:03:00,
2013-04-28 10:08:00,68.0,39.0,26.78,WNW,289,13.0,17.0,36,0.00,,,-99.99,,2013-04-28 15:08:00,
2013-04-28 10:13:00,69.0,43.0,26.78,West,276,11.0,16.0,39,0.00,,,-99.99,,2013-04-28 15:13:00,
2013-04-28 10:18:00,69.0,43.0,26.78,WNW,285,13.0,16.0,38,0.00,,,-99.99,,2013-04-28 15:18:00,
2013-04-28 10:23:00,69.0,43.0,26.78,NW,307,13.0,20.0,38,0.00,,,-99.99,,2013-04-28 15:23:00,
2013-04-28 10:33:00,71.0,36.0,26.78,WNW,290,16.0,19.0,27,0.00,,,-99.99,,2013-04-28 15:33:00,
2013-04-28 10:38:00,72.0,34.0,26.77,NW,307,16.0,19.0,25,0.00,,,-99.99,,2013-04-28 15:38:00,
2013-04-28 10:48:00,74.0,37.0,26.77,NW,309,17.0,22.0,26,0.00,,,-99.99,,2013-04-28 15:48:00,
2013-04-28 10:58:00,75.0,45.0,26.76,NW,310,20.0,23.0,34,0.00,,,-99.99,,2013-04-28 15:58:00,
2013-04-28 11:03:00,76.0,34.0,26.76,WNW,302,19.0,22.0,21,0.00,,,-99.99,,2013-04-28 16:03:00,
2013-04-28 11:08:00,76.0,39.0,26.76,NW,320,19.0,21.0,27,0.00,,,-99.99,,2013-04-28 16:08:00,
2013-04-28 11:13:00,76.0,34.0,26.77,NW,306,18.0,21.0,21,0.00,,,-99.99,,2013-04-28 16:13:00,
2013-04-28 11:18:00,77.0,32.0,26.77,WNW,288,19.0,23.0,20,0.00,,,-99.99,,2013-04-28 16:18:00,
2013-04-28 11:23:00,77.0,36.0,26.77,NW,312,18.0,22.0,22,0.00,,,-99.99,,2013-04-28 16:23:00,
2013-04-28 11:28:00,77.0,27.0,26.77,NW,310,18.0,20.0,16,0.00,,,-99.99,,2013-04-28 16:28:00,
2013-04-28 11:33:00,78.0,28.0,26.77,NW,313,18.0,22.0,16,0.00,,,-99.99,,2013-04-28 16:33:00,
2013-04-28 11:38:00,78.0,28.0,26.76,NW,316,15.0,18.0,16,0.00,,,-99.99,,2013-04-28 16:38:00,
2013-04-28 11:48:00,79.0,25.0,26.76,NW,316,15.0,19.0,13,0.00,,,-99.99,,2013-04-28 16:48:00,
2013-04-28 11:58:00,80.0,41.0,26.76,NNW,331,19.0,22.0,25,0.00,,,-99.99,,2013-04-28 16:58:00,
2013-04-28 12:03:00,80.0,28.0,26.76,NW,324,16.0,20.0,15,0.00,,,-99.99,,2013-04-28 17:03:00,
2013-04-28 12:13:00,80.0,27.0,26.76,NW,309,18.0,20.0,14,0.00,,,-99.99,,2013-04-28 17:13:00,
2013-04-28 12:23:00,81.0,18.0,26.76,WNW,302,20.0,24.0,9,0.00,,,-99.99,,2013-04-28 17:23:00,
2013-04-28 12:28:00,81.0,19.0,26.76,NW,317,18.0,23.0,10,0.00,,,-99.99,,2013-04-28 17:28:00,
2013-04-28 12:33:00,81.0,19.0,26.75,WNW,292,14.0,19.0,10,0.00,,,-99.99,,2013-04-28 17:33:00,
2013-04-28 12:38:00,81.0,19.0,26.75,NW,306,17.0,21.0,10,0.00,,,-99.99,,2013-04-28 17:38:00,
2013-04-28 12:43:00,82.0,16.0,26.75,NW,317,20.0,24.0,8,0.00,,,-99.99,,2013-04-28 17:43:00,
2013-04-28 12:48:00,82.0,18.0,26.75,NW,309,16.0,20.0,9,0.00,,,-99.99,,2013-04-28 17:48:00,
2013-04-28 12:58:00,82.0,18.0,26.74,WNW,299,17.0,22.0,9,0.00,,,-99.99,,2013-04-28 17:58:00,
2013-04-28 13:08:00,82.0,19.0,26.74,WNW,295,17.0,22.0,10,0.00,,,-99.99,,2013-04-28 18:08:00,
2013-04-28 13:18:00,82.0,18.0,26.73,NW,306,22.0,25.0,9,0.00,,,-99.99,,2013-04-28 18:18:00,
2013-04-28 13:23:00,83.0,16.0,26.73,WNW,289,19.0,26.0,8,0.00,,,-99.99,,2013-04-28 18:23:00,
2013-04-28 13:33:00,83.0,16.0,26.73,WNW,300,21.0,27.0,8,0.00,,,-99.99,,2013-04-28 18:33:00,
2013-04-28 13:38:00,83.0,18.0,26.73,WNW,293,22.0,27.0,9,0.00,,,-99.99,,2013-04-28 18:38:00,
2013-04-28 13:43:00,82.0,18.0,26.73,NW,307,17.0,24.0,9,0.00,,,-99.99,,2013-04-28 18:43:00,
2013-04-28 13:48:00,83.0,16.0,26.73,NW,306,15.0,20.0,8,0.00,,,-99.99,,2013-04-28 18:48:00,
2013-04-28 13:53:00,83.0,27.0,26.73,WNW,289,19.0,25.0,13,0.00,,,-99.99,,2013-04-28 18:53:00,
2013-04-28 13:58:00,83.0,18.0,26.73,NW,305,21.0,27.0,9,0.00,,,-99.99,,2013-04-28 18:58:00,
2013-04-28 14:03:00,83.0,16.0,26.73,NW,306,18.0,24.0,8,0.00,,,-99.99,,2013-04-28 19:03:00,
2013-04-28 14:08:00,84.0,16.0,26.73,WNW,293,17.0,21.0,8,0.00,,,-99.99,,2013-04-28 19:08:00,
2013-04-28 14:13:00,84.0,19.0,26.72,WNW,303,21.0,26.0,9,0.00,,,-99.99,,2013-04-28 19:13:00,
2013-04-28 14:18:00,84.0,19.0,26.72,WNW,286,19.0,25.0,9,0.00,,,-99.99,,2013-04-28 19:18:00,
2013-04-28 14:23:00,85.0,18.0,26.72,WSW,258,16.0,25.0,8,0.00,,,-99.99,,2013-04-28 19:23:00,
2013-04-28 14:28:00,85.0,19.0,26.72,West,271,19.0,26.0,9,0.00,,,-99.99,,2013-04-28 19:28:00,
2013-04-28 14:33:00,85.0,18.0,26.72,West,281,18.0,26.0,8,0.00,,,-99.99,,2013-04-28 19:33:00,
2013-04-28 14:38:00,85.0,18.0,26.72,WNW,289,19.0,26.0,8,0.00,,,-99.99,,2013-04-28 19:38:00,
2013-04-28 14:43:00,85.0,18.0,26.72,West,275,19.0,26.0,8,0.00,,,-99.99,,2013-04-28 19:43:00,
2013-04-28 14:48:00,85.0,14.0,26.72,WNW,292,20.0,24.0,7,0.00,,,-99.99,,2013-04-28 19:48:00,
2013-04-28 14:53:00,85.0,23.0,26.71,WNW,296,15.0,21.0,10,0.00,,,-99.99,,2013-04-28 19:53:00,
2013-04-28 14:58:00,85.0,18.0,26.71,West,276,19.0,25.0,8,0.00,,,-99.99,,2013-04-28 19:58:00,
2013-04-28 15:03:00,85.0,19.0,26.71,West,261,18.0,27.0,9,0.00,,,-99.99,,2013-04-28 20:03:00,
2013-04-28 15:08:00,85.0,19.0,26.71,WSW,255,16.0,20.0,9,0.00,,,-99.99,,2013-04-28 20:08:00,
2013-04-28 15:13:00,85.0,14.0,26.70,WNW,300,16.0,22.0,7,0.00,,,-99.99,,2013-04-28 20:13:00,
2013-04-28 15:18:00,86.0,10.0,26.71,WNW,295,16.0,23.0,6,0.00,,,-99.99,,2013-04-28 20:18:00,
2013-04-28 15:23:00,86.0,18.0,26.70,WSW,254,15.0,23.0,8,0.00,,,-99.99,,2013-04-28 20:23:00,
2013-04-28 15:28:00,86.0,14.0,26.71,NW,317,21.0,26.0,7,0.00,,,-99.99,,2013-04-28 20:28:00,
2013-04-28 15:33:00,86.0,14.0,26.70,WNW,296,19.0,23.0,7,0.00,,,-99.99,,2013-04-28 20:33:00,
2013-04-28 15:38:00,86.0,14.0,26.70,WNW,290,16.0,23.0,7,0.00,,,-99.99,,2013-04-28 20:38:00,
2013-04-28 15:43:00,85.0,14.0,26.70,WNW,285,13.0,18.0,7,0.00,,,-99.99,,2013-04-28 20:43:00,
2013-04-28 15:48:00,86.0,18.0,26.70,WNW,302,19.0,24.0,8,0.00,,,-99.99,,2013-04-28 20:48:00,
2013-04-28 15:53:00,86.0,14.0,26.70,WNW,292,19.0,23.0,7,0.00,,,-99.99,,2013-04-28 20:53:00,
2013-04-28 15:58:00,86.0,14.0,26.70,West,259,16.0,21.0,7,0.00,,,-99.99,,2013-04-28 20:58:00,
2013-04-28 16:03:00,86.0,7.0,26.69,West,275,14.0,19.0,5,0.00,,,-99.99,,2013-04-28 21:03:00,
2013-04-28 16:08:00,86.0,7.0,26.69,West,278,14.0,21.0,5,0.00,,,-99.99,,2013-04-28 21:08:00,
2013-04-28 16:18:00,86.0,7.0,26.69,West,279,16.0,20.0,5,0.00,,,-99.99,,2013-04-28 21:18:00,
2013-04-28 16:23:00,86.0,14.0,26.69,WNW,289,13.0,18.0,7,0.00,,,-99.99,,2013-04-28 21:23:00,
2013-04-28 16:28:00,86.0,7.0,26.68,West,271,15.0,20.0,5,0.00,,,-99.99,,2013-04-28 21:28:00,
2013-04-28 16:33:00,86.0,10.0,26.68,West,259,14.0,19.0,6,0.00,,,-99.99,,2013-04-28 21:33:00,
2013-04-28 16:38:00,86.0,10.0,26.68,NNW,340,16.0,22.0,6,0.00,,,-99.99,,2013-04-28 21:38:00,
2013-04-28 16:43:00,86.0,-11.0,26.68,NNW,348,15.0,19.0,2,0.00,,,-99.99,,2013-04-28 21:43:00,
2013-04-28 16:48:00,85.0,1.0,26.69,NNW,336,14.0,17.0,4,0.00,,,-99.99,,2013-04-28 21:48:00,
2013-04-28 16:53:00,85.0,18.0,26.68,North,354,13.0,16.0,8,0.00,,,-99.99,,2013-04-28 21:53:00,
2013-04-28 16:58:00,85.0,1.0,26.68,North,350,17.0,21.0,4,0.00,,,-99.99,,2013-04-28 21:58:00,
2013-04-28 17:03:00,85.0,14.0,26.68,NNW,340,18.0,21.0,7,0.00,,,-99.99,,2013-04-28 22:03:00,
2013-04-28 17:08:00,85.0,7.0,26.68,North,358,17.0,20.0,5,0.00,,,-99.99,,2013-04-28 22:08:00,
2013-04-28 17:13:00,85.0,10.0,26.68,NW,321,15.0,17.0,6,0.00,,,-99.99,,2013-04-28 22:13:00,
2013-04-28 17:18:00,85.0,14.0,26.68,NNW,337,15.0,19.0,7,0.00,,,-99.99,,2013-04-28 22:18:00,
2013-04-28 17:23:00,85.0,18.0,26.69,NNW,347,16.0,19.0,8,0.00,,,-99.99,,2013-04-28 22:23:00,
2013-04-28 17:28:00,85.0,10.0,26.68,North,11,14.0,18.0,6,0.00,,,-99.99,,2013-04-28 22:28:00,
2013-04-28 17:33:00,85.0,7.0,26.68,NNW,338,15.0,17.0,5,0.00,,,-99.99,,2013-04-28 22:33:00,
2013-04-28 17:38:00,85.0,10.0,26.68,NW,307,16.0,19.0,6,0.00,,,-99.99,,2013-04-28 22:38:00,
2013-04-28 17:43:00,85.0,10.0,26.69,NNW,341,15.0,20.0,6,0.00,,,-99.99,,2013-04-28 22:43:00,
2013-04-28 17:53:00,85.0,14.0,26.68,NNW,334,13.0,15.0,7,0.00,,,-99.99,,2013-04-28 22:53:00,
2013-04-28 17:58:00,85.0,18.0,26.68,NW,317,15.0,20.0,8,0.00,,,-99.99,,2013-04-28 22:58:00,
2013-04-28 18:08:00,84.0,16.0,26.69,NNW,338,13.0,14.0,8,0.00,,,-99.99,,2013-04-28 23:08:00,
2013-04-28 18:13:00,84.0,10.0,26.69,NNW,330,11.0,13.0,6,0.00,,,-99.99,,2013-04-28 23:13:00,
2013-04-28 18:18:00,84.0,19.0,26.68,North,6,13.0,16.0,9,0.00,,,-99.99,,2013-04-28 23:18:00,
2013-04-28 18:23:00,84.0,5.0,26.68,NNW,338,17.0,20.0,5,0.00,,,-99.99,,2013-04-28 23:23:00,
2013-04-28 18:28:00,83.0,12.0,26.69,NNW,338,17.0,19.0,7,0.00,,,-99.99,,2013-04-28 23:28:00,
2013-04-28 18:38:00,82.0,16.0,26.69,NNW,336,16.0,20.0,8,0.00,,,-99.99,,2013-04-28 23:38:00,
2013-04-28 18:48:00,82.0,16.0,26.69,NNE,16,16.0,19.0,8,0.00,,,-99.99,,2013-04-28 23:48:00,
2013-04-28 18:53:00,82.0,16.0,26.69,North,7,18.0,20.0,8,0.00,,,-99.99,,2013-04-28 23:53:00,
2013-04-28 19:03:00,82.0,18.0,26.69,NNE,16,15.0,20.0,9,0.00,,,-99.99,,2013-04-29 00:03:00,
2013-04-28 19:08:00,82.0,27.0,26.69,NNE,18,17.0,21.0,13,0.00,,,-99.99,,2013-04-29 00:08:00,
2013-04-28 19:13:00,81.0,25.0,26.69,North,10,18.0,21.0,13,0.00,,,-99.99,,2013-04-29 00:13:00,
2013-04-28 19:23:00,81.0,28.0,26.68,NNE,31,15.0,18.0,15,0.00,,,-99.99,,2013-04-29 00:23:00,
2013-04-28 19:28:00,80.0,30.0,26.68,NNE,23,15.0,18.0,16,0.00,,,-99.99,,2013-04-29 00:28:00,
2013-04-28 19:38:00,80.0,36.0,26.68,North,355,17.0,21.0,20,0.00,,,-99.99,,2013-04-29 00:38:00,
2013-04-28 19:48:00,78.0,37.0,26.69,NE,37,16.0,19.0,24,0.00,,,-99.99,,2013-04-29 00:48:00,
2013-04-28 19:53:00,77.0,39.0,26.68,NNE,21,17.0,20.0,26,0.00,,,-99.99,,2013-04-29 00:53:00,
2013-04-28 19:58:00,77.0,41.0,26.69,NNE,24,18.0,22.0,27,0.00,,,-99.99,,2013-04-29 00:58:00,
2013-04-28 20:03:00,76.0,39.0,26.69,NNE,25,15.0,19.0,27,0.00,,,-99.99,,2013-04-29 01:03:00,
2013-04-28 20:08:00,75.0,39.0,26.70,NNE,18,15.0,16.0,28,0.00,,,-99.99,,2013-04-29 01:08:00,
2013-04-28 20:18:00,74.0,39.0,26.70,NNE,32,14.0,16.0,29,0.00,,,-99.99,,2013-04-29 01:18:00,
2013-04-28 20:23:00,73.0,41.0,26.70,NE,34,14.0,16.0,31,0.00,,,-99.99,,2013-04-29 01:23:00,
2013-04-28 20:28:00,73.0,41.0,26.70,NNE,27,14.0,16.0,32,0.00,,,-99.99,,2013-04-29 01:28:00,
2013-04-28 20:38:00,71.0,41.0,26.71,NE,37,13.0,15.0,34,0.00,,,-99.99,,2013-04-29 01:38:00,
2013-04-28 20:48:00,70.0,41.0,26.71,NE,41,12.0,14.0,34,0.00,,,-99.99,,2013-04-29 01:48:00,
2013-04-28 20:53:00,69.0,41.0,26.71,NNE,23,12.0,15.0,35,0.00,,,-99.99,,2013-04-29 01:53:00,
2013-04-28 20:58:00,69.0,41.0,26.71,NNE,28,12.0,13.0,36,0.00,,,-99.99,,2013-04-29 01:58:00,
2013-04-28 21:03:00,68.0,39.0,26.72,NE,34,12.0,14.0,36,0.00,,,-99.99,,2013-04-29 02:03:00,
2013-04-28 21:13:00,67.0,41.0,26.72,NNE,31,12.0,14.0,38,0.00,,,-99.99,,2013-04-29 02:13:00,
2013-04-28 21:18:00,67.0,41.0,26.72,NE,37,12.0,14.0,39,0.00,,,-99.99,,2013-04-29 02:18:00,
2013-04-28 21:23:00,67.0,41.0,26.73,NE,47,12.0,14.0,40,0.00,,,-99.99,,2013-04-29 02:23:00,
2013-04-28 21:28:00,66.0,41.0,26.73,NE,35,13.0,14.0,40,0.00,,,-99.99,,2013-04-29 02:28:00,
2013-04-28 21:38:00,65.0,41.0,26.73,NE,42,13.0,15.0,41,0.00,,,-99.99,,2013-04-29 02:38:00,
2013-04-28 21:48:00,65.0,43.0,26.74,NE,45,13.0,14.0,43,0.00,,,-99.99,,2013-04-29 02:48:00,
2013-04-28 21:53:00,65.0,43.0,26.74,NE,51,14.0,17.0,45,0.00,,,-99.99,,2013-04-29 02:53:00,
2013-04-28 22:03:00,64.0,43.0,26.75,NE,38,11.0,13.0,45,0.00,,,-99.99,,2013-04-29 03:03:00,
2013-04-28 22:08:00,63.0,41.0,26.75,NE,48,11.0,13.0,46,0.00,,,-99.99,,2013-04-29 03:08:00,
2013-04-28 22:18:00,63.0,43.0,26.75,NE,48,14.0,16.0,48,0.00,,,-99.99,,2013-04-29 03:18:00,
2013-04-28 22:28:00,64.0,43.0,26.76,NE,48,14.0,16.0,47,0.00,,,-99.99,,2013-04-29 03:28:00,
2013-04-28 22:33:00,63.0,41.0,26.76,NE,34,13.0,16.0,46,0.00,,,-99.99,,2013-04-29 03:33:00,
2013-04-28 22:43:00,63.0,43.0,26.76,NE,47,12.0,14.0,48,0.00,,,-99.99,,2013-04-29 03:43:00,
2013-04-28 22:48:00,62.0,43.0,26.76,NE,45,12.0,14.0,48,0.00,,,-99.99,,2013-04-29 03:48:00,
2013-04-28 22:53:00,62.0,43.0,26.76,NE,44,14.0,17.0,48,0.00,,,-99.99,,2013-04-29 03:53:00,
2013-04-28 22:58:00,63.0,43.0,26.76,NE,42,15.0,18.0,47,0.00,,,-99.99,,2013-04-29 03:58:00,
2013-04-28 23:03:00,62.0,41.0,26.76,NE,42,12.0,14.0,47,0.00,,,-99.99,,2013-04-29 04:03:00,
2013-04-28 23:08:00,62.0,43.0,26.76,NNE,32,11.0,13.0,48,0.00,,,-99.99,,2013-04-29 04:08:00,
2013-04-28 23:13:00,61.0,41.0,26.77,NNE,31,10.0,13.0,49,0.00,,,-99.99,,2013-04-29 04:13:00,
2013-04-28 23:23:00,61.0,43.0,26.77,NE,35,10.0,12.0,50,0.00,,,-99.99,,2013-04-29 04:23:00,
2013-04-28 23:28:00,60.0,41.0,26.77,NE,39,9.0,10.0,51,0.00,,,-99.99,,2013-04-29 04:28:00,
2013-04-28 23:38:00,59.0,41.0,26.77,NE,35,9.0,10.0,53,0.00,,,-99.99,,2013-04-29 04:38:00,
2013-04-28 23:43:00,59.0,41.0,26.77,NE,48,8.0,9.0,53,0.00,,,-99.99,,2013-04-29 04:43:00,
2013-04-28 23:53:00,59.0,43.0,26.76,NE,55,10.0,11.0,54,0.00,,,-99.99,,2013-04-29 04:53:00,
2013-04-28 23:58:00,59.0,43.0,26.77,NE,54,10.0,10.0,54,0.00,,,-99.99,,2013-04-29 04:58:00,